CS7ATL-11 Weather Reports


Display with metric or nautical units.
time (UTC)temp
F
wind
direction
speed
MPH
gust
MPH
rain 1hr
in
rain 24hr
in
rain mn
in
humidity
%
barometer
mb
20260507071459 57 338 1.0 5.0 0.00 0.00 0.00 100 999.5
20260507071001 57 312 0.0 5.0 0.00 0.00 0.00 100 999.5
20260507070500 57 319 1.0 8.0 0.00 0.00 0.00 100 999.5
20260507070004 56 330 0.0 8.0 0.00 0.00 0.00 100 999.5
20260507065503 56 292 4.0 7.0 0.00 0.00 0.00 100 999.5
20260507065002 56 262 0.0 5.0 0.00 0.00 0.00 100 999.4
20260507064459 56 342 0.0 6.0 0.00 0.00 0.00 100 999.4
20260507063959 55 309 5.0 5.0 0.00 0.00 0.00 100 999.3
20260507063459 55 331 2.0 4.0 0.00 0.00 0.00 100 999.3
20260507063000 55 332 0.0 3.0 0.00 0.00 0.00 100 999.2
20260507062500 55 327 0.0 4.0 0.00 0.00 0.00 100 999.3
20260507062000 55 315 0.0 5.0 0.00 0.00 0.00 100 999.2
20260507061500 55 275 0.0 5.0 0.00 0.00 0.00 100 999.3
20260507060959 54 360 1.0 3.0 0.00 0.00 0.00 100 999.1
20260507060501 54 309 0.0 2.0 0.00 0.00 0.00 100 999.3
20260507060003 54 311 0.0 2.0 0.00 0.00 0.00 100 999.1
20260507055502 55 329 1.0 2.0 0.00 0.00 0.00 100 999.1
20260507054959 55 340 2.0 3.0 0.00 0.00 0.00 100 999.1
20260507054459 55 292 0.0 5.0 0.00 0.00 0.00 100 999.1
20260507053500 55 327 0.0 8.0 0.00 0.00 0.00 100 999.0
20260507053001 55 346 4.0 8.0 0.00 0.00 0.00 100 999.2
20260507051959 55 329 3.0 13.0 0.00 0.00 0.00 100 998.9
20260507051500 55 339 3.0 13.0 0.00 0.00 0.00 100 999.0
20260507050459 55 320 6.0 12.0 0.00 0.00 0.00 100 998.9
20260507050004 55 327 3.0 12.0 0.00 0.00 0.00 100 998.9
20260507045500 55 360 6.0 11.0 0.00 0.00 0.00 100 998.9
20260507045000 55 311 2.0 11.0 0.00 0.00 0.00 100 998.8
20260507044500 55 315 2.0 11.0 0.00 0.00 0.00 100 998.8
20260507044000 55 308 7.0 13.0 0.00 0.00 0.00 100 998.7
20260507043500 55 327 2.0 13.0 0.00 0.00 0.00 100 998.8
20260507042959 55 355 1.0 15.0 0.00 0.00 0.00 100 998.7
20260507042500 55 350 6.0 15.0 0.00 0.00 0.00 100 998.7
20260507041500 55 331 6.0 14.0 0.00 0.00 0.00 100 998.7
20260507041000 55 348 5.0 11.0 0.00 0.00 0.00 100 998.8
20260507040500 55 355 0.0 14.0 0.00 0.00 0.00 100 998.8
20260507035459 55 338 5.0 14.0 0.00 0.00 0.00 100 999.0
20260507034459 55 340 5.0 14.0 0.00 0.00 0.00 100 999.1
20260507033959 55 330 5.0 12.0 0.00 0.00 0.00 100 999.1
20260507033459 55 309 7.0 13.0 0.00 0.00 0.00 100 999.1
20260507032959 55 315 0.0 14.0 0.00 0.00 0.00 100 999.2
20260507032000 55 329 3.0 13.0 0.00 0.00 0.00 100 999.3
20260507031459 55 309 8.0 13.0 0.00 0.00 0.00 100 999.2
20260507030500 55 340 4.0 18.0 0.00 0.00 0.00 100 999.3
20260507030003 55 336 8.0 18.0 0.00 0.00 0.00 100 999.4
20260507025459 55 336 9.0 14.0 0.00 0.00 0.00 100 999.2
20260507024959 55 344 4.0 14.0 0.00 0.00 0.00 100 999.3
20260507024500 55 328 6.0 14.0 0.00 0.00 0.00 100 999.1
20260507024000 55 344 5.0 14.0 0.00 0.00 0.00 100 999.3
20260507023459 55 337 8.0 14.0 0.00 0.00 0.00 100 999.2
20260507022959 55 311 8.0 18.0 0.00 0.00 0.00 100 999.4
20260507022459 55 338 10.0 17.0 0.00 0.00 0.00 100 999.3
20260507021959 55 360 5.0 15.0 0.00 0.00 0.00 100 999.4
20260507021459 55 311 3.0 15.0 0.00 0.00 0.00 100 999.4
20260507020959 55 322 8.0 12.0 0.00 0.00 0.00 100 999.4
20260507020459 55 343 4.0 12.0 0.00 0.00 0.00 100 999.5
20260507020002 56 321 2.0 14.0 0.00 0.00 0.00 100 999.4
20260507015459 56 355 9.0 16.0 0.00 0.00 0.00 100 999.6
20260507014959 56 346 5.0 16.0 0.00 0.00 0.00 100 999.5
20260507014500 56 348 3.0 17.0 0.00 0.00 0.00 100 999.6
20260507013959 56 340 3.0 17.0 0.00 0.00 0.00 100 999.7
20260507013500 56 355 9.0 16.0 0.00 0.00 0.00 100 999.6
20260507013003 56 342 4.0 20.0 0.00 0.00 0.00 100 999.6
20260507012459 56 11 11.0 20.0 0.00 0.00 0.00 100 999.7
20260507011502 56 342 4.0 16.0 0.00 0.00 0.00 100 999.7
20260507011000 56 5 14.0 16.0 0.00 0.00 0.00 100 999.7
20260507010459 56 346 5.0 16.0 0.00 0.00 0.00 100 999.8
20260507005000 56 346 6.0 17.0 0.00 0.00 0.00 100 999.9
20260507004459 56 329 10.0 19.0 0.00 0.00 0.00 100 999.7
20260507003959 56 336 4.0 19.0 0.00 0.00 0.00 100 999.7
20260507003500 56 355 10.0 14.0 0.00 0.00 0.00 100 999.8
20260507003002 56 346 2.0 13.0 0.00 0.00 0.00 100 999.8
20260507002502 56 344 5.0 14.0 0.00 0.00 0.00 100 999.9
20260507001959 56 310 4.0 14.0 0.00 0.00 0.00 100 999.8
20260507001500 56 333 12.0 17.0 0.00 0.00 0.00 100 1000.1
20260507000500 56 338 4.0 16.0 0.00 0.00 0.00 100 1000.0
20260507000002 56 355 6.0 17.0 0.00 0.00 0.00 100 1000.2
20260506235503 56 355 4.0 17.0 0.00 0.00 0.00 100 1000.1
20260506235003 56 336 4.0 15.0 0.00 0.00 0.00 100 1000.2
20260506233503 56 346 10.0 18.0 0.00 0.00 0.00 100 1000.1
20260506233004 56 307 5.0 16.0 0.00 0.00 0.00 100 1000.0
20260506232503 56 355 3.0 17.0 0.00 0.00 0.00 100 1000.1
20260506232002 56 333 8.0 19.0 0.00 0.00 0.00 100 1000.2
20260506231502 56 350 5.0 19.0 0.00 0.00 0.00 100 1000.1
20260506231003 56 312 3.0 16.0 0.00 0.00 0.00 100 999.9
20260506230502 56 288 10.0 18.0 0.00 0.00 0.00 100 1000.3
20260506230006 56 12 9.0 18.0 0.00 0.00 0.00 100 1000.0
20260506225502 56 320 8.0 15.0 0.00 0.00 0.00 100 999.8
20260506225002 56 347 9.0 15.0 0.00 0.00 0.00 100 1000.0
20260506224002 56 342 5.0 18.0 0.00 0.00 0.00 100 1000.0
20260506223502 56 327 9.0 14.0 0.00 0.00 0.00 100 1000.0
20260506223002 57 329 4.0 15.0 0.00 0.00 0.00 100 1000.1
20260506222502 57 342 12.0 16.0 0.00 0.00 0.00 100 1000.1
20260506221502 57 17 14.0 17.0 0.00 0.00 0.00 100 1000.2
20260506220502 57 344 8.0 18.0 0.00 0.00 0.00 100 1000.3
20260506220002 57 327 8.0 17.0 0.00 0.00 0.00 100 1000.3
20260506215003 57 300 17.0 17.0 0.00 0.00 0.00 100 1000.3
20260506214502 57 355 14.0 17.0 0.00 0.00 0.00 100 1000.3
20260506214002 57 360 12.0 17.0 0.00 0.00 0.00 100 1000.4
20260506213502 57 336 13.0 17.0 0.00 0.00 0.00 100 1000.3
20260506213002 57 341 4.0 17.0 0.00 0.00 0.00 100 1000.4
20260506212502 57 360 5.0 18.0 0.00 0.00 0.00 100 1000.5
20260506211002 57 9 2.0 16.0 0.00 0.00 0.00 100 1000.4
20260506210502 57 341 9.0 18.0 0.00 0.00 0.00 100 1000.3
20260506210003 57 346 8.0 18.0 0.00 0.00 0.00 100 1000.3
20260506205502 57 360 10.0 15.0 0.00 0.00 0.00 100 1000.3
20260506205002 57 344 6.0 21.0 0.00 0.00 0.00 100 1000.3
20260506204503 57 350 4.0 21.0 0.00 0.00 0.00 100 1000.0
20260506204002 57 337 9.0 17.0 0.00 0.00 0.00 100 1000.1
20260506203502 58 327 5.0 17.0 0.00 0.00 0.00 100 1000.1
20260506203002 58 338 6.0 17.0 0.00 0.00 0.00 100 1000.1
20260506202503 58 5 11.0 16.0 0.00 0.00 0.00 100 1000.1
20260506202002 58 340 3.0 14.0 0.00 0.00 0.00 100 1000.3
20260506201503 58 348 5.0 17.0 0.00 0.00 0.00 100 1000.2
20260506200502 58 311 9.0 16.0 0.00 0.00 0.00 100 1000.4
20260506200003 58 323 3.0 15.0 0.00 0.00 0.00 100 1000.3
20260506195502 58 319 3.0 15.0 0.00 0.00 0.00 100 1000.3
20260506195003 58 341 11.0 15.0 0.00 0.00 0.00 100 1000.2
20260506194502 58 336 10.0 14.0 0.00 0.00 0.00 100 1000.3
20260506194002 59 355 8.0 17.0 0.00 0.00 0.00 100 1000.2
20260506193502 59 340 10.0 17.0 0.00 0.00 0.00 100 1000.1
20260506193002 59 291 8.0 15.0 0.00 0.00 0.00 100 1000.1
20260506192502 59 339 9.0 14.0 0.00 0.00 0.00 100 999.9
20260506192003 59 12 10.0 15.0 0.00 0.00 0.00 100 1000.1
20260506191503 59 347 10.0 15.0 0.00 0.00 0.00 100 999.9
20260506191002 60 333 3.0 14.0 0.00 0.00 0.00 100 1000.0
20260506190502 60 308 10.0 13.0 0.00 0.00 0.00 100 1000.0
20260506190003 60 306 7.0 15.0 0.00 0.00 0.00 100 1000.0
20260506185503 60 331 6.0 15.0 0.00 0.00 0.00 100 1000.0
20260506185000 61 5 6.0 14.0 0.00 0.00 0.00 100 1000.0
20260506184500 61 327 4.0 13.0 0.00 0.00 0.00 100 1000.1
20260506184002 61 326 10.0 14.0 0.00 0.00 0.00 100 1000.0
20260506183500 61 329 4.0 14.0 0.00 0.00 0.00 100 1000.2
20260506183000 62 319 5.0 19.0 0.00 0.00 0.00 100 1000.0
20260506182000 62 320 8.0 16.0 0.00 0.00 0.00 100 999.9
20260506181500 62 341 10.0 16.0 0.00 0.00 0.00 100 1000.0
20260506181002 62 355 10.0 15.0 0.00 0.00 0.00 100 1000.0
20260506180500 62 348 8.0 14.0 0.00 0.00 0.00 100 1000.0
20260506180005 62 317 3.0 16.0 0.00 0.00 0.00 100 1000.1
20260506175502 62 315 4.0 17.0 0.00 0.00 0.00 100 1000.1
20260506174503 63 14 8.0 13.0 0.00 0.00 0.00 100 1000.1
20260506174002 63 304 8.0 16.0 0.00 0.00 0.00 100 1000.3
20260506173502 63 333 13.0 17.0 0.00 0.00 0.00 100 1000.3
20260506173002 64 314 4.0 14.0 0.00 0.00 0.00 100 1000.5
20260506172502 64 294 10.0 15.0 0.00 0.00 0.00 100 1000.3
20260506172002 64 318 11.0 15.0 0.00 0.00 0.00 100 1000.4
20260506171502 64 346 4.0 14.0 0.00 0.00 0.00 100 1000.4
20260506170503 65 319 4.0 15.0 0.00 0.00 0.00 100 1000.4
20260506170003 64 316 12.0 18.0 0.00 0.00 0.00 100 1000.3
20260506165503 64 12 3.0 17.0 0.00 0.00 0.00 100 1000.5
20260506165006 65 311 15.0 16.0 0.00 0.00 0.00 100 1000.5
20260506164502 65 336 11.0 19.0 0.00 0.00 0.00 100 1000.4
20260506164002 65 325 6.0 19.0 0.00 0.00 0.00 100 1000.5
20260506163503 65 355 1.0 19.0 0.00 0.00 0.00 100 1000.6
20260506163003 65 344 2.0 20.0 0.00 0.00 0.00 100 1000.7
20260506162502 65 284 9.0 20.0 0.00 0.00 0.00 100 1000.4
20260506162003 65 11 8.0 19.0 0.00 0.00 0.00 100 1000.5
20260506161503 65 342 8.0 17.0 0.00 0.00 0.00 100 1000.5
20260506161002 66 327 9.0 17.0 0.00 0.00 0.00 100 1000.6
20260506160502 66 308 7.0 20.0 0.00 0.00 0.00 100 1000.6
20260506160003 66 310 8.0 20.0 0.00 0.00 0.00 100 1000.5
20260506155503 66 324 13.0 21.0 0.00 0.00 0.00 100 1000.5
20260506155002 66 9 16.0 21.0 0.00 0.00 0.00 100 1000.5
20260506154502 66 322 11.0 17.0 0.00 0.00 0.00 100 1000.5
20260506154002 67 335 4.0 15.0 0.00 0.00 0.00 100 1000.6
20260506153003 66 325 11.0 22.0 0.00 0.00 0.00 100 1000.6
20260506152503 67 323 16.0 18.0 0.00 0.00 0.00 100 1000.7
20260506152003 67 314 10.0 17.0 0.00 0.00 0.00 100 1000.7
20260506151003 68 334 5.0 14.0 0.00 0.00 0.00 100 1000.8
20260506150502 68 335 6.0 17.0 0.00 0.00 0.00 100 1000.9
20260506145502 67 348 12.0 18.0 0.00 0.00 0.00 100 1001.1
20260506145002 66 314 10.0 18.0 0.00 0.00 0.00 100 1001.1
20260506144503 67 319 3.0 17.0 0.00 0.00 0.00 100 1001.1
20260506143503 67 327 5.0 16.0 0.00 0.00 0.00 100 1001.4
20260506143003 67 328 11.0 15.0 0.00 0.00 0.00 100 1001.6
20260506142502 68 13 12.0 16.0 0.00 0.00 0.00 100 1001.5
20260506142004 67 12 5.0 16.0 0.00 0.00 0.00 100 1001.6
20260506141502 67 342 5.0 16.0 0.00 0.00 0.00 100 1001.5
20260506141002 67 5 5.0 16.0 0.00 0.00 0.00 100 1001.6
20260506140503 67 309 3.0 15.0 0.00 0.00 0.00 100 1001.5
20260506140002 67 355 5.0 14.0 0.00 0.00 0.00 100 1001.7
20260506135503 67 300 8.0 15.0 0.00 0.00 0.00 100 1001.7
20260506134502 67 268 6.0 16.0 0.00 0.00 0.00 100 1001.7
20260506134002 67 259 7.0 16.0 0.00 0.00 0.00 100 1001.7
20260506133002 67 344 11.0 13.0 0.00 0.00 0.00 100 1001.8
20260506132502 67 9 5.0 15.0 0.00 0.00 0.00 100 1002.0
20260506132002 67 346 8.0 15.0 0.00 0.00 0.00 100 1001.9
20260506131503 67 279 9.0 13.0 0.00 0.00 0.00 100 1001.9
20260506131014 67 325 6.0 13.0 0.00 0.00 0.00 100 1001.9
20260506130503 67 342 3.0 13.0 0.00 0.00 0.00 100 1001.9
20260506130003 67 302 4.0 17.0 0.00 0.00 0.00 100 1001.9
20260506125500 66 327 9.0 17.0 0.00 0.00 0.00 100 1002.2
20260506125002 65 355 6.0 14.0 0.00 0.00 0.00 100 1002.2
20260506124500 65 325 10.0 16.0 0.00 0.00 0.00 100 1002.4
20260506123459 65 346 12.0 16.0 0.00 0.00 0.00 100 1002.4
20260506123000 65 347 11.0 12.0 0.00 0.00 0.00 100 1002.6
20260506122459 64 302 5.0 13.0 0.00 0.00 0.00 100 1002.5
20260506121500 63 290 3.0 18.0 0.00 0.00 0.00 100 1002.8
20260506121000 63 333 10.0 18.0 0.00 0.00 0.00 100 1002.9
20260506120000 63 345 8.0 16.0 0.00 0.00 0.00 100 1003.0
20260506115502 63 325 9.0 16.0 0.00 0.00 0.00 100 1002.9
20260506115002 63 347 8.0 15.0 0.00 0.00 0.00 100 1003.0
20260506114503 63 346 2.0 18.0 0.00 0.00 0.00 100 1003.2
20260506114003 63 329 10.0 18.0 0.00 0.00 0.00 100 1003.1
20260506113501 63 336 9.0 15.0 0.00 0.00 0.00 100 1003.1
20260506113004 63 319 10.0 15.0 0.00 0.00 0.00 100 1003.1
20260506112500 63 360 9.0 18.0 0.00 0.00 0.00 100 1003.1
20260506112000 63 336 6.0 18.0 0.00 0.00 0.00 100 1003.0
20260506111500 62 17 9.0 16.0 0.00 0.00 0.00 100 1003.0
20260506111000 62 351 5.0 17.0 0.00 0.00 0.00 100 1003.2
20260506110503 62 340 8.0 17.0 0.00 0.00 0.00 100 1003.3
20260506110002 63 317 5.0 16.0 0.00 0.00 0.00 100 1003.3
20260506105002 63 321 3.0 18.0 0.00 0.00 0.00 100 1003.2
20260506104003 63 346 2.0 14.0 0.00 0.00 0.00 100 1003.2
20260506103502 62 340 5.0 14.0 0.00 0.00 0.00 100 1003.2
20260506103003 62 311 6.0 17.0 0.00 0.00 0.00 100 1003.1
20260506102502 62 338 8.0 17.0 0.00 0.00 0.00 100 1003.1
20260506102002 61 336 3.0 15.0 0.00 0.00 0.00 100 1003.1
20260506101502 60 327 5.0 15.0 0.00 0.00 0.00 100 1003.4
20260506101002 60 347 6.0 12.0 0.00 0.00 0.00 100 1003.3
20260506100003 60 346 0.0 12.0 0.00 0.00 0.00 100 1003.3
20260506095500 60 343 10.0 17.0 0.00 0.00 0.00 100 1003.4
20260506095000 60 350 4.0 17.0 0.00 0.00 0.00 100 1003.3
20260506094500 60 360 6.0 12.0 0.00 0.00 0.00 100 1003.2
20260506093959 60 325 6.0 12.0 0.00 0.00 0.00 100 1003.3
20260506093459 60 301 2.0 11.0 0.00 0.00 0.00 100 1003.3
20260506093000 60 306 8.0 11.0 0.00 0.00 0.00 100 1003.2
20260506092459 60 313 11.0 11.0 0.00 0.00 0.00 100 1003.3
20260506091959 61 343 2.0 11.0 0.00 0.00 0.00 100 1003.4
20260506091500 61 327 3.0 13.0 0.00 0.00 0.00 100 1003.3
20260506091002 62 300 4.0 13.0 0.00 0.00 0.00 100 1003.2
20260506090459 63 317 3.0 10.0 0.00 0.00 0.00 100 1003.1
20260506090000 63 309 1.0 10.0 0.00 0.00 0.00 100 1003.0
20260506085500 63 342 5.0 11.0 0.00 0.00 0.00 100 1003.0
20260506084500 63 348 2.0 9.0 0.00 0.00 0.00 100 1003.0
20260506084003 63 349 0.0 11.0 0.00 0.00 0.00 100 1003.0
20260506083501 62 348 8.0 11.0 0.00 0.00 0.00 100 1003.0
20260506083000 62 336 4.0 10.0 0.00 0.00 0.00 100 1003.0
20260506082502 62 314 4.0 11.0 0.00 0.00 0.00 100 1003.1
20260506082000 61 355 10.0 11.0 0.00 0.00 0.00 100 1003.2
20260506081459 61 327 4.0 11.0 0.00 0.00 0.00 100 1003.2
20260506081000 61 335 5.0 11.0 0.00 0.00 0.00 100 1003.4
20260506080502 60 343 2.0 11.0 0.00 0.00 0.00 100 1003.3
20260506073502 59 345 3.0 10.0 0.00 0.00 0.00 100 1003.4
20260506073002 58 360 3.0 11.0 0.00 0.00 0.00 100 1003.3
20260506072500 58 340 3.0 11.0 0.00 0.00 0.00 100 1003.1
20260506072000 57 344 4.0 9.0 0.00 0.00 0.00 100 1003.1